Regional Weather Roundup
Issued by NWS

Home | Current Version | Previous Version | Text Only | Print | Product List | Glossary Off
Versions: 1 2 3 4 5 6 7 8 9 10 11 12 13 14 15 16 17 18 19 20 21 22 23 24 25 26 27 28 29 30 31 32 33 34 35 36 37 38 39 40 41 42 43 44 45 46 47 48 49 50

000
ASUS43 KMPX 241310
RWRMN
WEATHER ROUNDUP FOR MINNESOTA
NATIONAL WEATHER SERVICE TWIN CITIES/CHANHASSEN MN
700 AM CST MON NOV 24 2014


NOTE: "FAIR" INDICATES FEW OR NO CLOUDS BELOW 12,000 FEET WITH NO
SIGNIFICANT WEATHER AND/OR OBSTRUCTIONS TO VISIBILITY. N/A MEANS
CURRENT SKY AND/OR WEATHER CONDITIONS ARE NOT AVAILABLE.

MNZ060>063-068>070-241400-
   Twin Cities Metro

CITY           SKY/WX    TMP DP  RH WIND       PRES   REMARKS
TWIN CITIES    CLOUDY    24  20  84 NW13G26   29.36R WCI  12
ST PAUL        CLOUDY    25  22  88 NW16G24   29.36R WCI  12
CRYSTAL        CLOUDY    25  19  78 NW21G28   29.35R WCI  11
BLAINE         CLOUDY    27  25  93 W16       29.34R WCI  14
LAKEVILLE      CLOUDY    21  21 100 NW22G29   29.33R FOG     WCI   5
EDEN PRAIRIE   CLOUDY    24  19  81 NW16G25   29.36R WCI  11
SOUTH ST PAUL  CLOUDY    26  23  89 NW16G26   29.34R FOG     WCI  13
LAKE ELMO      LGT SNOW  27  25  93 NW16G22   29.33R WCI  14
$$
MNZ001>005-007-008-013>017-022>024-027-028-241400-
   Northwest Minnesota

CITY           SKY/WX    TMP DP  RH WIND       PRES   REMARKS
BEMIDJI        LGT SNOW  13  10  87 NW15      29.48R WCI  -3
HALLOCK        CLOUDY     7   1  78 N25G36    29.69R WCI -15
ROSEAU         FLURRIES  12   7  79 NW15      29.60R WCI  -4
WARROAD        LGT SNOW  10   7  85 NW9       29.58R WCI  -2
THIEF RVR FALL CLOUDY     9   7  92 NW20      29.59R WCI -11
CROOKSTON      CLOUDY    10   7  85 N28G33    29.65R WCI -11
FOSSTON        LGT SNOW   9   5  85 NW15G24   29.56R WCI  -8
DETROIT LAKES  LGT SNOW  12   9  85 NW20G29   29.55R WCI  -6
MOORHEAD       MIX PCPN  12  10  92 N22G35    29.64R WCI  -7
PARK RAPIDS    LGT SNOW  13   9  84 NW18      29.46R FOG     WCI  -4
MAHNOMEN       LGT SNOW  10   6  84 NW18      29.56R WCI  -8
$$
MNZ006-009>011-018-025>026-241400-
   North Central Minnesota

CITY           SKY/WX    TMP DP  RH WIND       PRES   REMARKS
BAUDETTE       FLURRIES  14  10  84 NW22G30   29.50R WCI  -4
FLAG ISLAND    LGT SNOW  12   9  85 N20       29.56R WCI  -6
INTL FALLS     CLOUDY    21  17  84 N17       29.41R WCI   7
WASKISH        FLURRIES  18  16  93 NW9G16    29.48R WCI   6
BIG FORK       MIX PCPN  25  21  86 NW7       29.39R WCI  17
LONGVILLE      CLOUDY    18  16  93 NW10G21   29.42R WCI   6
GRAND RAPIDS   CLOUDY    23  19  86 NW16G24   29.34R WCI  10
CRANE LAKE     CLOUDY    25  23  93 N12G20    29.37R WCI  14
ORR            MIX PCPN  27  21  80 NW7       29.32R WCI  19
COOK           CLOUDY    28  27  93 NW12G17   29.32R FOG     WCI  18
WALKER         FLURRIES  14  10  85 NW13G20   29.44R WCI   0
$$
MNZ012-019>021-037-241400-
   Northeast Minnesota

CITY           SKY/WX    TMP DP  RH WIND       PRES   REMARKS
DULUTH         LGT SNOW  30  27  88 NW18G26   29.22R VSB 1   WCI  18
ELY            LGT SNOW  28  27  93 N10G18    29.26R WCI  19
HIBBING        LGT SNOW  29  25  85 NW16G25   29.29R FOG     WCI  17
EVELETH        MIX PCPN  32  30  93 NW16      29.28R WCI  21
DULUTH HARBOR  MIX PCPN  34  30  86 NW12G26   29.25R WCI  25
TWO HARBORS    MIX PCPN  37  32  81 NW7G17    29.18R
SILVER BAY     CLOUDY    36  30  80 N10G16    29.17R
GRAND MARAIS     N/A     31  26  82 N20G38    29.12R WCI  19
G MARAIS ARPRT LGT SNOW  25  19  80 NW20G31   29.15R WCI  11
$$
MNZ029>031-032-039>041-046>048-054>057-064-241400-
   West Central Minnesota

CITY           SKY/WX    TMP DP  RH WIND       PRES   REMARKS
FERGUS FALLS   LGT SNOW  10   7  85 NW25G35   29.60R WCI -10
WHEATON        LGT SNOW  10   7  85 NW23G32   29.63R WCI -10
MORRIS         LGT SNOW  12   9  85 NW30G43   29.54R WCI  -9
ALEXANDRIA     LGT SNOW  14   8  77 NW23G31   29.48R WCI  -5
ELBOW LAKE     LGT SNOW  11   8  85 NW25G37   29.55R WCI  -9
WADENA         LGT SNOW  12   9  85 NW20G26   29.47R WCI  -6
GLENWOOD       FLURRIES  14  10  85 NW18G31   29.48R WCI  -3
APPLETON       FLURRIES  16  10  79 NW29G36   29.57R WCI  -4
BENSON         LGT SNOW  16  10  79 N26G33    29.52R WCI  -3
ORTONVILLE     LGT SNOW  14   9  79 NW25      29.58R WCI  -5
MADISON        FLURRIES  19  12  73 NW29G36   29.58R WCI   1
WILLMAR        LGT SNOW  18  10  73 NW30G37   29.49R WCI  -2
$$
MNZ033>034-036-042>043-049>051-058-059-241400-
   Central Minnesota

CITY           SKY/WX    TMP DP  RH WIND       PRES   REMARKS
ST CLOUD       CLOUDY    22  15  75 NW21G28   29.39R WCI   6
SAUK CENTRE    LGT SNOW  15  11  82 NW22      29.45R WCI  -3
PAYNESVILLE    FLURRIES  15  11  85 W14G29    29.45R WCI   0
AITKIN         CLOUDY    25  18  74 NW7G17    29.36R WCI  17
PINE RIVER     CLOUDY    18  16  93 NW13      29.46R WCI   4
BRAINERD       CLOUDY    19  17  92 NW17G25   29.40R WCI   4
STAPLES        LGT SNOW  16  10  79 NW17G23   29.45R WCI   0
LONG PRAIRIE   FLURRIES  16  10  79 W18G25    29.44R WCI  -1
LITTLE FALLS   CLOUDY    19  14  79 NW10G20   29.42R WCI   8
LITCHFIELD     CLOUDY    19  16  86 NW18G32   29.43R WCI   4
BUFFALO        CLOUDY    22  16  80 W15G24    29.40R WCI   8
MAPLE LAKE     CLOUDY    22  18  85 NW13G20   29.41R WCI  10
$$
MNZ037-044-045-052-053-241400-
   East Central Minnesota

CITY           SKY/WX    TMP DP  RH WIND       PRES   REMARKS
PRINCETON      CLOUDY    25  19  80 W17G25    29.36R WCI  11
MORA           CLOUDY    27  23  86 NW21      29.35R WCI  13
CAMBRIDGE      CLOUDY    27  19  74 NW13G22   29.33R WCI  16
RUSH CITY      CLOUDY    26  23  89 NW15G22   29.32R WCI  13
MOOSE LAKE     CLOUDY    28  25  86 NW10G17   29.28R FOG     WCI  19
HINCKLEY       CLOUDY    28  25  86 NW13G23   29.31R WCI  18
CLOQUET        CLOUDY    28  27  93 NW22G28   29.25S WCI  15
MCGREGOR       CLOUDY    25  23  93 NW17G24   29.34R WCI  11
$$
MNZ071>073-080-081-089-090-097-098-241400-
   Southwest Minnesota

CITY           SKY/WX    TMP DP  RH WIND       PRES   REMARKS
MONTEVIDEO     FLURRIES  16  10  79 N24G35    29.55R WCI  -3
GRANITE FALLS  FLURRIES  16  11  81 NW25G33   29.56R WCI  -3
CANBY          CLOUDY    17  11  78 NW22G36   29.59R WCI  -1
MARSHALL       CLOUDY    18   9  68 N28G35    29.54R WCI  -1
REDWOOD FALLS  FLURRIES  18  11  74 NW25G38   29.50R WCI   0
OLIVIA         FLURRIES  19  14  79 NW30G36   29.48R WCI   0
PIPESTONE      FLURRIES  18  12  79 N22G35    29.54R WCI   0
WINDOM         FLURRIES  18  12  79 NW23G35   29.48R WCI   0
WORTHINGTON    CLOUDY    18  10  73 NW22      29.52R WCI   0
JACKSON        CLOUDY    19  14  79 NW22G33   29.48R WCI   3
TRACY          FLURRIES  18  12  77 NW24G36   29.53R WCI   0
SLAYTON        CLOUDY    18  13  81 NW24G33   29.52R WCI   0
$$
MNZ065>067-074>077-082>085-091>093-241400-
   South Central Minnesota

CITY           SKY/WX    TMP DP  RH WIND       PRES   REMARKS
MANKATO        CLOUDY    19  12  73 NW22G32   29.41R WCI   3
NEW ULM        CLOUDY    18  14  86 NW28G39   29.44R WCI  -1
ST JAMES       CLOUDY    19  16  86 W28G35    29.47R WCI   1
FAIRMONT       CLOUDY    19  12  73 NW28G36   29.45R WCI   1
GLENCOE        CLOUDY    22  19  89 W21G28    29.41R WCI   6
FARIBAULT      CLOUDY    25  21  86 W23G29    29.36R WCI  10
OWATONNA       MIX PCPN  23  19  86 W24       29.35R WCI   7
WASECA         CLOUDY    21  18  86 W24G31    29.39R HAZE    WCI   4
ALBERT LEA     CLOUDY    21  21 100 NW15G30   29.36R WCI   8
$$
MNZ078>079-086>088-094>096-241400-
   Southeast Minnesota

CITY           SKY/WX    TMP DP  RH WIND       PRES   REMARKS
ROCHESTER      LGT SNOW  26  23  88 NW24G33   29.28R FOG     WCI  11
RED WING         N/A     28  27  93 W13G20    29.29R WCI  18
STANTON        CLOUDY    27  24  89 W14       29.34R FOG     WCI  15
DODGE CENTER   LGT SNOW  25  25 100 NW17G26   29.31R WCI  11
WINONA         LGT SNOW  34  32  93 NW10G16   29.24R VSB 1   WCI  26
AUSTIN         CLOUDY    21  19  93 NW21G32   29.33R FOG     WCI   6
PRESTON        LGT SNOW  27  25  93 NW22G29   29.26R WCI  12
$$
ABBREVIATIONS USED IN REMARKS
   TC - TEMPERATURES IN CELSIUS
  WCI - WIND CHILL INDEX
   HX - HEAT INDEX
  VSB - VISIBILITY
$$


USA.gov is the U.S. government's official web portal to all federal, state and local government web resources and services.